Tampa Macdill AFB, FL

8:49 PM EST on February 25, 2018 (GMT -0500)
MacDill Air Force Base

Weather History for KMCF - June, 2014

Change the Weather History Date:

Tuesday, June 10, 2014

  Actual Average Record
Temperature  
Mean Temperature 82 °F -  
Max Temperature 92 °F 88 °F 95 °F (2002)
Min Temperature 71 °F 72 °F 70 °F (2015)
Cooling Degree Days 16    
Growing Degree Days 32 (Base 50)    
Moisture  
Dew Point 73 °F    
Average Humidity 84    
Maximum Humidity 100    
Minimum Humidity 54    
Precipitation  
Precipitation 1.70 in - - ()
Sea Level Pressure  
Sea Level Pressure 30.02 in    
Wind  
Wind Speed 7 mph (SE)    
Max Wind Speed 21 mph    
Max Gust Speed 29 mph    
Visibility 7 miles    
Events Fog , Rain , Thunderstorm    
Averages and records for this station are not official NWS values.
T = Trace of Precipitation, MM = Missing Value Source: NWS Daily Summary

Daily Weather History Graph

Daily Weather History Graph

Search for Another Location

Airport or City:

Trip Planner

Search our weather history database for the weather conditions in past years. The results will help you decide how hot, cold, wet, or windy it might be!

Date:

Astronomy

Jun. 10, 2014 Rise Set
Actual Time 6:33 AM EDT 8:25 PM EDT
Civil Twilight 6:06 AM EDT 8:52 PM EDT
Nautical Twilight 5:34 AM EDT 9:24 PM EDT
Astronomical Twilight 5:00 AM EDT 9:58 PM EDT
Moon 6:00 PM EDT (6/10) 4:24 AM EDT (6/10)
Length of Visible Light 14h 45m
Length of Day
13h 52m
Waxing Gibbous, 92% of the Moon is Illuminated
Jun 10
Waxing Gibbous
Jun 13
Full
Jun 19
Last Quarter
Jun 27
New
Jul 5
First Quarter

Hourly Weather History & Observations

Time (EDT) Temp. Heat Index Dew Point Humidity Pressure Visibility Wind Dir Wind Speed Gust Speed Precip Events Conditions
12:58 AM 77.0 °F - 74.7 °F 92% 30.00 in 10.0 mi North 1.2 mph - N/A   Mostly Cloudy
1:58 AM 77.2 °F - 74.5 °F 91% 30.00 in 10.0 mi ENE 3.5 mph - N/A   Partly Cloudy
2:58 AM 76.3 °F - 73.6 °F 91% 29.99 in 10.0 mi NE 1.2 mph - N/A   Mostly Cloudy
3:58 AM 77.0 °F - 74.5 °F 92% 29.99 in 10.0 mi NE 2.3 mph - N/A   Mostly Cloudy
4:58 AM 75.2 °F - 72.5 °F 91% 30.00 in 10.0 mi East 2.3 mph - N/A   Clear
5:58 AM 74.1 °F - 72.3 °F 94% 30.00 in 10.0 mi East 3.5 mph - N/A   Mostly Cloudy
6:58 AM 74.7 °F - 73.8 °F 97% 30.00 in 10.0 mi East 2.3 mph - N/A   Mostly Cloudy
7:58 AM 80.8 °F 87.2 °F 76.6 °F 87% 30.01 in 10.0 mi SSE 5.8 mph - N/A   Partly Cloudy
8:58 AM 83.5 °F 92.6 °F 76.8 °F 80% 30.02 in 10.0 mi South 5.8 mph - N/A   Mostly Cloudy
9:58 AM 86.9 °F 97.8 °F 76.3 °F 71% 30.03 in 10.0 mi Variable 6.9 mph - N/A   Clear
10:58 AM 87.8 °F 99.1 °F 76.6 °F 69% 30.03 in 10.0 mi SSW 9.2 mph - 0.00 in   Clear
11:58 AM 89.4 °F 101.7 °F 76.8 °F 66% 30.03 in 10.0 mi SSW 11.5 mph - N/A   Clear
12:58 PM 90.1 °F 99.4 °F 74.3 °F 59% 30.02 in 10.0 mi SW 10.4 mph - N/A   Partly Cloudy
1:58 PM 91.6 °F 100.5 °F 73.2 °F 55% 30.02 in 10.0 mi SSW 13.8 mph - N/A   Clear
2:58 PM 92.3 °F 101.5 °F 73.2 °F 54% 30.00 in 10.0 mi SSW 13.8 mph - N/A   Clear
3:58 PM 90.7 °F 101.3 °F 75.0 °F 60% 29.98 in 10.0 mi SW 13.8 mph - N/A   Clear
4:58 PM 90.1 °F 99.4 °F 73.9 °F 59% 29.97 in 10.0 mi WSW 13.8 mph - N/A   Clear
5:58 PM 88.5 °F 97.8 °F 74.7 °F 63% 29.99 in 10.0 mi WSW 10.4 mph - N/A   Clear
6:58 PM 88.0 °F 97.5 °F 74.7 °F 65% 30.01 in 10.0 mi NE 11.5 mph - N/A   Mostly Cloudy
7:10 PM 86.0 °F 93.4 °F 73.4 °F 66% 30.00 in 5.0 mi East 20.7 mph 28.8 mph N/A Thunderstorm Haze
7:13 PM 84.2 °F 90.9 °F 73.4 °F 70% 30.00 in 7.0 mi East 20.7 mph 28.8 mph N/A Thunderstorm Thunderstorm
7:14 PM 84.2 °F 90.9 °F 73.4 °F 70% 30.01 in 8.0 mi East 16.1 mph 26.5 mph N/A Rain , Thunderstorm Thunderstorms and Rain
7:19 PM 80.6 °F 86.2 °F 75.2 °F 84% 30.02 in 1.2 mi East 11.5 mph 26.5 mph N/A Rain , Thunderstorm Heavy Thunderstorms and Rain
7:20 PM 80.6 °F 86.2 °F 75.2 °F 84% 30.02 in 1.2 mi ESE 12.7 mph 26.5 mph N/A Rain , Thunderstorm Heavy Thunderstorms and Rain
7:25 PM 77.0 °F - 73.4 °F 89% 30.02 in 0.5 mi SE 11.5 mph - N/A Rain , Thunderstorm Heavy Thunderstorms and Rain
7:30 PM 75.2 °F - 71.6 °F 89% 30.02 in 0.2 mi NNE 12.7 mph - N/A Fog , Rain , Thunderstorm Heavy Thunderstorms and Rain
7:35 PM 73.4 °F - 71.6 °F 94% 30.02 in 0.2 mi NNE 6.9 mph - N/A Fog , Rain , Thunderstorm Heavy Thunderstorms and Rain
7:40 PM 73.4 °F - 69.8 °F 88% 30.04 in 0.8 mi Variable 5.8 mph - N/A Rain , Thunderstorm Heavy Thunderstorms and Rain
7:45 PM 71.6 °F - 69.8 °F 94% 30.04 in 1.0 mi ENE 6.9 mph - N/A Rain , Thunderstorm Heavy Thunderstorms and Rain
7:50 PM 71.6 °F - 69.8 °F 94% 30.04 in 1.2 mi ENE 5.8 mph - N/A Rain , Thunderstorm Heavy Thunderstorms and Rain
7:55 PM 71.6 °F - 69.8 °F 94% 30.04 in 1.5 mi East 6.9 mph - N/A Rain , Thunderstorm Heavy Thunderstorms and Rain
7:58 PM 71.2 °F - 70.2 °F 96% 30.06 in 1.8 mi SE 6.9 mph - 1.59 in Rain , Thunderstorm Heavy Thunderstorms and Rain
8:03 PM 71.6 °F - 71.6 °F 100% 30.05 in 2.5 mi SE 13.8 mph - N/A Rain , Thunderstorm Thunderstorms and Rain
8:04 PM 71.6 °F - 71.6 °F 100% 30.05 in 2.5 mi SE 16.1 mph - N/A Rain , Thunderstorm Rain
8:09 PM 71.6 °F - 71.6 °F 100% 30.04 in 4.0 mi SSE 16.1 mph - N/A Rain , Thunderstorm Light Rain
8:26 PM 71.6 °F - 71.6 °F 100% 30.02 in 10.0 mi SSE 9.2 mph - N/A Thunderstorm Overcast
8:33 PM 73.4 °F - 71.6 °F 94% 30.02 in 10.0 mi SSE 5.8 mph - N/A Thunderstorm Thunderstorm
8:51 PM 75.2 °F - 73.4 °F 94% 30.01 in 10.0 mi SE 5.8 mph - N/A Thunderstorm Mostly Cloudy
8:58 PM 74.8 °F - 72.3 °F 92% 30.02 in 10.0 mi SSE 4.6 mph - 0.07 in Thunderstorm Mostly Cloudy
9:01 PM 75.2 °F - 73.4 °F 94% 30.02 in 10.0 mi South 4.6 mph - N/A Rain Light Rain
9:58 PM 73.2 °F - 72.7 °F 98% 30.02 in 10.0 mi ESE 3.5 mph - 0.03 in Rain Light Rain
10:26 PM 73.4 °F - 73.4 °F 100% 30.02 in 10.0 mi South 11.5 mph - N/A   Partly Cloudy
10:58 PM 74.3 °F - 72.9 °F 95% 30.02 in 10.0 mi SSE 8.1 mph - 0.01 in   Partly Cloudy
11:58 PM 74.5 °F - 71.8 °F 91% 30.02 in 10.0 mi South 5.8 mph - N/A   Mostly Cloudy